Location: ???????
(54.9996°N, 37.9529°E)
Time: 05:27:21
(UTC+00:00)

ACS3 Solar Sail - Visible Passes

Search period start: 15 January 2026 00:00
Search period end: 25 January 2026 00:00
Orbit: 895 x 982 km, 97.2° (Epoch: 14 January)

Date Brightness Start Highest point End Pass type
(mag) Time Alt. Az. Time Alt. Az. Time Alt. Az.
15 Jan 4.0 01:06:21 10° N 01:07:20 15° N 01:07:20 15° N visible
15 Jan 3.8 02:50:29 10° NNW 02:51:12 12° NNW 02:51:12 12° NNW visible
15 Jan 4.5 23:37:28 10° NNE 23:37:37 11° NNE 23:37:37 11° NNE visible
16 Jan 3.9 01:20:25 10° N 01:21:29 15° N 01:21:29 15° N visible
16 Jan 3.8 03:05:01 10° NNW 03:05:21 11° NNW 03:05:21 11° NNW visible
16 Jan 4.4 23:51:22 10° NNE 23:51:44 12° NNE 23:51:44 12° NNE visible
17 Jan 3.9 01:34:28 10° N 01:35:36 15° N 01:35:36 15° N visible
18 Jan 4.3 00:05:14 10° NNE 00:05:50 13° NNE 00:05:50 13° NNE visible
18 Jan 3.8 01:48:31 10° N 01:49:42 15° N 01:49:42 15° N visible
19 Jan 4.2 00:19:07 10° NNE 00:19:53 14° NNE 00:19:53 14° NNE visible
19 Jan 3.8 02:02:34 10° N 02:03:44 14° N 02:03:44 14° N visible
20 Jan 4.1 00:32:59 10° N 00:33:55 15° N 00:33:55 15° N visible
20 Jan 3.8 02:16:37 10° N 02:17:46 14° NNW 02:17:46 14° NNW visible
21 Jan 4.0 00:46:50 10° N 00:47:53 16° N 00:47:53 16° N visible
21 Jan 3.8 02:30:42 10° N 02:31:45 13° NNW 02:31:45 13° NNW visible
21 Jan 4.6 23:17:55 10° NNE 23:18:00 10° NNE 23:18:00 10° NNE visible
22 Jan 3.9 01:00:40 10° N 01:01:51 16° N 01:01:51 16° N visible
22 Jan 3.8 02:44:50 10° NNW 02:45:41 12° NNW 02:45:41 12° NNW visible
22 Jan 4.4 23:31:33 10° NNE 23:31:55 12° NNE 23:31:55 12° NNE visible
23 Jan 3.8 01:14:29 10° N 01:15:46 16° N 01:15:46 16° N visible
23 Jan 3.8 02:59:07 10° NNW 02:59:37 11° NNW 02:59:37 11° NNW visible
23 Jan 4.3 23:45:11 10° NNE 23:45:48 13° NNE 23:45:48 13° NNE visible
24 Jan 3.8 01:28:17 10° N 01:29:39 16° N 01:29:39 16° N visible
